Location: Memphis Junction
(33.8007°N, 89.7968°W)
Time: 02:54:02
(UTC+00:00)

Tiangong - Visible Passes

Search period start: 20 January 2022 00:00
Search period end: 30 January 2022 00:00
Orbit: 383 x 386 km, 41.5° (Epoch: 19 January)

Date Brightness Start Highest point End Pass type
(mag) Time Alt. Az. Time Alt. Az. Time Alt. Az.
24 Jan 3.6 01:14:44 10° SSW 01:15:37 16° SSW 01:15:37 16° SSW visible
25 Jan 3.1 00:16:00 10° S 00:17:59 16° SE 00:19:06 13° ESE visible
26 Jan 1.2 00:51:41 10° SW 00:54:43 61° SSE 00:54:43 61° SSE visible
26 Jan 2.3 23:52:17 10° SSW 23:55:06 30° SE 23:57:56 10° E visible
27 Jan 3.6 01:28:52 10° W 01:30:14 22° WNW 01:30:14 22° WNW visible
28 Jan 1.2 00:28:51 10° WSW 00:32:00 69° NNW 00:33:26 29° NE visible
29 Jan 2.7 01:06:21 10° WNW 01:08:47 27° NNW 01:08:47 27° NNW visible
